1520251200.79,46367,10.94,72258.0,4.77,-20.35,-20.49,0,*72
1520251202.02,46368,10.94,72258.3,4.77,-20.35,-20.43,0,*77
1520251203.25,46369,10.94,72260.5,4.79,-20.25,-20.43,0,*79
1520251204.5,46370,10.94,72258.5,4.79,-19.85,-19.99,0,*7C
1520251205.75,46371,10.94,72256.5,4.79,-20.15,-20.43,0,*73
1520251206.98,46372,10.94,72258.8,4.79,-20.25,-20.29,0,*7F
1520251208.23,46373,10.94,72258.0,4.79,-20.53,-20.69,0,*7B
1520251209.44,46374,10.94,72262.8,4.77,-20.59,-20.63,0,*72
1520251210.72,46375,10.94,72260.8,4.75,-20.53,-20.79,0,*70
1520251211.93,46376,10.94,72262.3,4.77,-20.43,-20.59,0,*72
1520251213.19,46377,10.94,72258.5,4.79,-21.03,-21.17,0,*73
1520251214.44,46378,10.94,72256.8,4.75,-21.33,-21.43,0,*72
1520251215.71,46379,10.94,72256.3,4.75,-21.27,-21.33,0,*71
1520251216.96,46380,10.94,72256.0,4.75,-21.27,-21.43,0,*70
1520251218.22,46381,10.94,72258.3,4.75,-20.39,-20.53,0,*7F
1520251219.47,46382,10.94,72256.0,4.75,-20.35,-20.39,0,*7C
1520251220.75,46383,10.94,72260.8,4.75,-20.53,-20.79,0,*79
1520251222.03,46384,10.94,72258.3,4.75,-20.35,-20.49,0,*7D
1520251223.27,46385,10.94,72258.8,4.75,-20.09,-20.19,0,*76
1520251224.52,46386,10.94,72260.5,4.75,-20.35,-20.63,0,*77
1520251225.77,46387,10.94,72262.3,4.75,-20.69,-20.79,0,*74
1520251227.0,46388,10.94,72262.0,4.77,-20.79,-20.93,0,*7C
1520251228.26,46389,10.94,72258.0,4.75,-21.03,-21.17,0,*7E
1520251229.51,46390,10.94,72260.0,4.73,-20.35,-20.49,0,*7E
1520251230.74,46391,10.94,72260.3,4.75,-20.93,-20.93,0,*72
1520251231.99,46392,10.94,72260.8,4.75,-20.93,-20.99,0,*7B
1520251233.25,46393,10.94,72256.5,4.73,-20.49,-20.53,0,*7D
1520251234.47,46394,10.94,72260.5,4.73,-20.35,-20.39,0,*7D
1520251235.7,46395,10.94,72260.8,4.73,-20.49,-20.63,0,*78
1520251236.93,46396,10.94,72256.5,4.73,-20.49,-20.69,0,*71
1520251238.13,46397,10.94,72258.0,4.73,-19.91,-20.05,0,*75
1520251239.37,46398,10.94,72256.3,4.73,-20.35,-20.53,0,*7D
1520251240.6,46399,10.94,72258.0,4.73,-21.13,-21.27,0,*7B
1520251241.8,46400,10.94,72256.3,4.73,-21.13,-21.13,0,*7B
1520251243.01,46401,10.94,72258.3,4.73,-20.69,-20.93,0,*7F
1520251244.26,46402,10.94,72258.8,4.73,-20.99,-21.03,0,*7B
1520251245.49,46403,10.94,72258.5,4.73,-20.39,-20.53,0,*74
1520251246.72,46404,10.94,72256.8,4.73,-20.49,-20.63,0,*77
1520251247.93,46405,10.94,72260.0,4.73,-20.39,-20.63,0,*71
1520251249.13,46406,10.94,72258.8,4.73,-20.25,-20.39,0,*70
1520251250.36,46407,10.94,72256.5,4.73,-20.49,-20.63,0,*74
1520251251.59,46408,10.94,72260.3,4.73,-20.63,-20.83,0,*7D
1520251252.83,46409,10.94,72260.8,4.73,-20.79,-20.79,0,*72
1520251254.05,46410,10.94,72260.0,4.73,-20.39,-20.39,0,*7A
1520251255.3,46411,10.94,72258.0,4.73,-20.99,-20.99,0,*7B
1520251256.51,46412,10.94,72258.0,4.69,-20.73,-20.89,0,*76
1520251257.7,46413,10.94,72258.8,4.69,-20.25,-20.29,0,*7E
1520251258.94,46414,10.94,72256.8,4.69,-20.59,-20.83,0,*72
1520251260.17,46415,10.94,72260.0,4.73,-20.39,-20.53,0,*73
1520251261.39,46416,10.94,72258.8,4.73,-20.09,-20.19,0,*7D
1520251262.62,46417,10.94,72260.8,4.69,-21.09,-21.23,0,*7E
1520251263.86,46418,10.94,72262.0,4.69,-20.83,-20.89,0,*73
1520251265.13,46419,10.94,72260.3,4.67,-20.15,-20.19,0,*7A
1520251266.33,46420,10.94,72260.5,4.69,-19.95,-20.09,0,*7D
1520251267.54,46421,10.94,72258.3,4.69,-19.99,-19.99,0,*73
1520251268.73,46422,10.94,72260.0,4.69,-20.09,-20.09,0,*70
1520251269.98,46423,10.94,72258.0,4.73,-20.79,-20.83,0,*7F
1520251271.19,46424,10.94,72258.3,4.69,-21.77,-21.93,0,*7C
1520251272.44,46425,10.94,72258.5,4.67,-21.27,-21.39,0,*76
1520251273.67,46426,11.0,72260.5,4.67,-20.63,-20.73,0,*7B
1520251274.88,46427,10.94,72256.5,4.69,-20.39,-20.43,0,*78
1520251276.12,46428,10.94,72258.8,4.67,-20.05,-20.15,0,*75
1520251277.35,46429,10.94,72258.5,4.67,-21.13,-21.13,0,*75
1520251278.6,46430,10.94,72256.5,4.67,-21.53,-21.73,0,*7F
1520251279.89,46431,10.94,72256.0,4.67,-21.27,-21.23,0,*78
1520251281.11,46432,10.94,72256.5,4.65,-20.69,-20.79,0,*7C
1520251282.35,46433,10.94,72258.0,4.67,-20.29,-20.19,0,*7D
1520251283.61,46434,10.94,72260.5,4.67,-20.49,-20.43,0,*73
1520251284.84,46435,10.94,72256.8,4.67,-20.73,-20.73,0,*78
1520251286.09,46436,10.94,72260.5,4.67,-21.03,-21.09,0,*71
1520251287.31,46437,10.94,72262.0,4.65,-21.17,-21.27,0,*7B
1520251288.51,46438,10.94,72258.3,4.65,-20.93,-21.09,0,*75
1520251289.71,46439,10.94,72258.5,4.65,-21.13,-21.17,0,*72
1520251290.94,46440,10.94,72258.5,4.63,-21.77,-21.93,0,*74
1520251292.19,46441,10.94,72258.5,4.63,-21.57,-21.63,0,*78
1520251293.43,46442,10.94,72258.8,4.65,-21.57,-21.57,0,*7A
1520251294.66,46443,10.94,72256.3,4.63,-22.27,-22.37,0,*7C
1520251295.91,46444,10.94,72256.0,4.57,-21.83,-21.97,0,*78
1520251297.19,46445,10.94,72258.0,4.55,-21.83,-21.87,0,*7A
1520251298.41,46446,10.94,72258.8,4.57,-21.13,-21.03,0,*7E
1520251299.64,46447,10.94,72258.8,4.57,-21.13,-21.03,0,*7F
1520251300.84,46448,10.94,72260.0,4.57,-21.17,-21.13,0,*75
1520251302.08,46449,10.94,72260.5,4.55,-21.43,-21.53,0,*73
1520251303.33,46450,10.94,72256.3,4.55,-21.97,-22.03,0,*74
1520251304.54,46451,11.0,72262.5,4.53,-22.53,-22.57,0,*79
1520251305.78,46452,10.94,72262.0,4.49,-22.47,-22.57,0,*74
1520251306.98,46453,10.94,72260.3,4.49,-21.77,-21.77,0,*74
1520251308.23,46454,10.94,72258.3,4.51,-20.99,-21.09,0,*72
1520251309.44,46455,10.94,72258.5,4.49,-20.73,-20.89,0,*77
1520251310.69,46456,10.94,72260.8,4.51,-20.99,-21.13,0,*7B
1520251311.91,46457,10.94,72258.8,4.51,-20.69,-20.69,0,*79
1520251313.17,46458,10.94,72258.8,4.49,-21.67,-21.67,0,*7F
1520251314.36,46459,10.94,72258.5,4.49,-22.07,-22.07,0,*7E
1520251315.59,46460,10.94,72258.8,4.49,-21.63,-21.67,0,*70
1520251316.82,46461,10.94,72254.8,4.49,-22.11,-22.31,0,*77
1520251318.03,46462,10.94,72258.0,4.45,-23.09,-23.13,0,*71
1520251319.22,46463,10.94,72256.8,4.45,-22.63,-22.67,0,*7F
1520251320.48,46464,10.94,72256.0,4.43,-22.37,-22.47,0,*7D
1520251321.7,46465,10.94,72256.5,4.41,-20.99,-21.09,0,*71
1520251322.95,46466,10.94,72258.8,4.43,-21.43,-21.53,0,*79
1520251324.15,46467,10.94,72256.8,4.41,-21.77,-21.77,0,*7B
1520251325.4,46468,10.94,72258.3,4.43,-21.67,-21.73,0,*73
1520251326.64,46469,10.94,72256.5,4.41,-21.57,-21.57,0,*75
1520251327.9,46470,10.94,72258.0,4.41,-21.27,-21.23,0,*79
1520251329.13,46471,10.94,72256.8,4.41,-20.93,-20.99,0,*76
1520251330.35,46472,10.94,72256.5,4.43,-20.93,-20.93,0,*7D
1520251331.6,46473,10.94,72258.0,4.39,-21.03,-21.17,0,*74
1520251332.83,46474,10.94,72258.5,4.41,-21.27,-21.43,0,*7B
1520251334.02,46475,10.94,72258.8,4.41,-21.63,-21.73,0,*79
1520251335.28,46476,10.94,72260.0,4.41,-21.53,-21.53,0,*7B
1520251336.53,46477,10.94,72256.0,4.39,-21.53,-21.63,0,*76
1520251337.81,46478,10.94,72258.8,4.39,-21.67,-21.53,0,*7D
1520251339.03,46479,10.94,72258.8,4.35,-21.47,-21.47,0,*77
1520251340.31,46480,10.94,72256.8,4.39,-20.53,-20.53,0,*7D
1520251341.54,46481,10.94,72258.3,4.39,-20.39,-20.43,0,*71
1520251342.77,46482,10.94,72258.8,4.39,-20.39,-20.43,0,*72
1520251344.02,46483,10.94,72262.0,4.39,-20.09,-20.19,0,*7F
1520251345.25,46484,10.94,72256.0,4.43,-20.63,-20.63,0,*74
1520251346.47,46485,10.94,72260.0,4.41,-20.35,-20.39,0,*7B
1520251347.7,46486,10.94,72262.5,4.41,-20.35,-20.39,0,*78
1520251348.92,46487,11.0,72262.5,4.41,-20.35,-20.39,0,*79
1520251350.18,46488,10.94,72258.0,4.43,-20.89,-21.03,0,*7B
1520251351.41,46489,11.0,72260.3,4.41,-21.87,-22.03,0,*74
1520251352.66,46490,10.94,72256.5,4.41,-22.17,-22.21,0,*76
1520251353.91,46491,10.94,72256.8,4.39,-21.83,-21.93,0,*7C
1520251355.16,46492,10.94,72256.5,4.35,-21.63,-21.67,0,*76
1520251356.41,46493,10.94,72262.0,4.39,-21.63,-21.67,0,*7B
1520251357.63,46494,10.94,72256.8,4.39,-21.63,-21.63,0,*78
1520251358.88,46495,10.94,72258.0,4.39,-22.11,-22.21,0,*7A
1520251360.12,46496,11.0,72260.5,4.35,-22.11,-22.21,0,*75
1520251361.33,46497,10.94,72256.5,4.33,-22.53,-22.53,0,*71
1520251362.56,46498,10.94,72258.5,4.31,-22.67,-22.67,0,*7C
1520251363.79,46499,10.94,72258.8,4.31,-22.03,-22.27,0,*7B
1520251365.01,46500,10.94,72254.3,4.31,-22.03,-22.11,0,*7F
1520251366.27,46501,11.0,72256.5,4.29,-22.31,-22.31,0,*74
1520251367.5,46502,10.94,72258.8,4.29,-22.77,-22.87,0,*78
1520251368.75,46503,10.94,72252.8,4.27,-23.19,-23.23,0,*71
1520251369.97,46504,10.94,72254.0,4.27,-23.65,-23.75,0,*7E
1520251371.17,46505,10.94,72254.8,4.23,-23.79,-24.05,0,*76
1520251372.43,46506,10.94,72256.5,4.21,-23.23,-23.43,0,*7D
1520251373.68,46507,11.0,72258.3,4.19,-23.19,-23.19,0,*71
1520251374.93,46508,11.0,72256.3,4.19,-23.19,-23.33,0,*76
1520251376.18,46509,10.94,72254.5,4.13,-23.89,-24.15,0,*77
1520251377.4,46510,10.94,72252.8,4.11,-23.95,-24.05,0,*71
1520251378.65,46511,10.94,72254.8,4.09,-23.69,-23.59,0,*74
1520251379.87,46512,10.94,72252.5,4.09,-22.41,-22.57,0,*73
1520251381.13,46513,11.0,72258.3,4.07,-21.87,-21.83,0,*7F
1520251382.39,46514,10.94,72256.3,4.07,-21.67,-21.83,0,*76
1520251383.62,46515,10.94,72256.5,4.07,-21.87,-22.03,0,*72
1520251384.84,46516,10.94,72254.8,4.07,-21.57,-21.73,0,*78
1520251386.07,46517,10.94,72258.3,4.07,-21.67,-21.73,0,*7A
1520251387.33,46518,11.0,72260.0,4.07,-21.53,-21.67,0,*77
1520251388.58,46519,10.94,72256.8,4.07,-20.83,-20.99,0,*7A
1520251389.81,46520,10.94,72258.0,4.09,-20.59,-20.69,0,*76
1520251391.04,46521,10.94,72258.3,4.09,-20.29,-20.25,0,*78
1520251392.26,46522,11.0,72258.5,4.11,-19.99,-20.15,0,*70
1520251393.5,46523,11.0,72260.8,4.11,-20.79,-20.89,0,*70
1520251394.7,46524,10.94,72254.3,4.11,-21.09,-21.17,0,*77
1520251395.92,46525,10.94,72256.8,4.11,-21.09,-21.03,0,*73
1520251397.2,46526,10.94,72256.3,4.13,-20.99,-21.03,0,*7A
1520251398.44,46527,10.94,72254.8,4.17,-20.43,-20.59,0,*76
1520251399.7,46528,11.0,72258.5,4.17,-20.79,-20.93,0,*76
1520251400.95,46529,11.0,72258.3,4.17,-21.87,-22.03,0,*7C
1520251402.2,46530,10.94,72256.8,4.13,-22.11,-22.21,0,*7C
1520251403.45,46531,11.0,72256.0,4.13,-22.67,-22.73,0,*7B
1520251404.7,46532,10.94,72252.8,4.13,-23.03,-23.09,0,*77
1520251405.93,46533,10.94,72252.5,4.11,-22.77,-22.83,0,*75
1520251407.16,46534,11.0,72256.3,4.11,-22.63,-22.77,0,*7C
1520251408.45,46535,10.94,72254.8,4.09,-22.47,-22.47,0,*71
1520251409.68,46536,11.0,72258.5,4.07,-22.83,-22.77,0,*77
1520251410.93,46537,10.94,72256.3,4.05,-22.77,-22.83,0,*74
1520251412.22,46538,10.94,72256.0,4.05,-22.21,-22.31,0,*71
1520251413.42,46539,10.94,72256.0,4.03,-21.73,-21.77,0,*73
1520251414.67,46540,10.94,72252.8,4.05,-21.27,-21.43,0,*7D
1520251415.96,46541,11.0,72258.8,4.05,-21.53,-21.67,0,*79
1520251417.21,46542,11.0,72258.8,4.05,-20.93,-20.99,0,*77
1520251418.46,46543,11.0,72256.5,4.05,-21.43,-21.53,0,*7D
1520251419.72,46544,10.94,72256.8,4.05,-20.99,-21.09,0,*73
1520251420.97,46545,11.0,72256.3,4.05,-21.27,-21.43,0,*78
1520251422.22,46546,11.0,72256.3,4.05,-22.07,-22.31,0,*7C
1520251423.47,46547,10.94,72254.0,4.05,-21.73,-21.83,0,*77
1520251424.69,46548,11.0,72258.5,4.07,-21.43,-21.57,0,*70
1520251425.95,46549,10.94,72256.0,4.07,-21.23,-21.27,0,*70
1520251427.18,46550,11.0,72256.8,4.05,-20.93,-21.09,0,*7C
1520251428.42,46551,11.0,72260.5,4.05,-20.73,-20.79,0,*75
1520251429.68,46552,10.94,72256.5,4.09,-20.93,-21.03,0,*78
1520251430.88,46553,11.0,72258.5,4.07,-20.73,-20.93,0,*71
1520251432.11,46554,11.0,72256.5,4.07,-21.09,-21.23,0,*70
1520251433.34,46555,10.94,72258.5,4.07,-20.79,-20.93,0,*7D
1520251434.57,46556,10.94,72258.0,4.07,-20.49,-20.73,0,*73
1520251435.78,46557,11.0,72256.5,4.11,-20.39,-20.59,0,*7A
1520251437.02,46558,11.0,72258.5,4.09,-19.99,-20.25,0,*77
1520251438.27,46559,11.0,72262.3,4.09,-19.85,-20.09,0,*75
1520251439.47,46560,11.0,72256.3,4.11,-20.93,-21.17,0,*75
1520251440.7,46561,10.94,72258.3,4.11,-21.23,-21.47,0,*7B
1520251441.96,46562,11.0,72256.0,4.11,-21.03,-21.23,0,*78
1520251443.19,46563,11.0,72256.5,4.13,-20.69,-20.73,0,*72
1520251444.44,46564,11.0,72258.0,4.13,-20.83,-21.09,0,*7D
1520251445.69,46565,10.94,72256.8,4.13,-20.69,-20.83,0,*7B
1520251446.97,46566,11.0,72258.8,4.17,-20.99,-21.27,0,*7C
1520251448.2,46567,11.0,72256.0,4.13,-20.69,-20.73,0,*76
1520251449.48,46568,11.0,72258.5,4.13,-20.35,-20.49,0,*79
1520251450.7,46569,11.0,72256.0,4.17,-20.29,-20.29,0,*77
1520251451.97,46570,11.0,72256.3,4.13,-20.83,-21.03,0,*72
1520251453.23,46571,11.0,72256.3,4.17,-20.29,-20.49,0,*78
1520251454.46,46572,10.94,72256.0,4.17,-20.43,-20.63,0,*7F
1520251455.69,46573,11.0,72256.3,4.17,-20.29,-20.43,0,*70
1520251456.92,46574,10.94,72258.5,4.17,-19.99,-19.99,0,*7B
1520251458.16,46575,10.94,72252.8,4.19,-20.15,-20.19,0,*78
1520251459.38,46576,11.0,72258.8,4.19,-20.05,-20.19,0,*7A
1520251460.61,46577,11.0,72258.8,4.21,-20.29,-20.59,0,*7A
1520251461.86,46578,11.0,72258.3,4.21,-20.53,-20.63,0,*71
1520251463.11,46579,11.0,72260.0,4.21,-21.47,-21.53,0,*76
1520251464.36,46580,10.94,72256.3,4.21,-21.03,-21.09,0,*7F
1520251465.6,46581,11.0,72260.5,4.19,-20.43,-20.49,0,*75
1520251466.79,46582,10.94,72258.8,4.19,-20.29,-20.43,0,*70
1520251468.04,46583,11.0,72258.3,4.21,-20.73,-20.79,0,*7C
1520251469.26,46584,11.0,72256.8,4.21,-20.93,-21.09,0,*73
1520251470.51,46585,10.94,72258.3,4.21,-22.17,-22.41,0,*73
1520251471.72,46586,11.0,72262.0,4.21,-21.63,-21.73,0,*72
1520251472.95,46587,11.0,72258.5,4.19,-21.23,-21.39,0,*72
1520251474.18,46588,11.0,72260.3,4.19,-21.13,-21.23,0,*75
1520251475.41,46589,10.94,72254.5,4.19,-20.99,-21.13,0,*74
1520251476.63,46590,11.0,72258.5,4.21,-21.17,-21.39,0,*78
1520251477.86,46591,11.0,72256.0,4.19,-20.93,-20.99,0,*74
1520251479.09,46592,11.0,72252.5,4.19,-21.09,-21.23,0,*75
1520251480.31,46593,10.94,72254.8,4.19,-20.99,-21.09,0,*74
1520251481.54,46594,11.0,72254.8,4.19,-20.83,-20.93,0,*7A
1520251482.74,46595,11.0,72252.8,4.19,-20.59,-20.69,0,*79
1520251483.97,46596,11.0,72252.5,4.19,-20.79,-20.93,0,*7D
1520251485.2,46597,11.0,72252.5,4.21,-20.63,-20.73,0,*72
1520251486.4,46598,11.0,72254.5,4.19,-20.69,-20.93,0,*72
1520251487.62,46599,11.0,72254.0,4.19,-20.73,-20.79,0,*7C
1520251488.87,46600,11.0,72256.5,4.21,-21.03,-21.17,0,*7B
1520251490.09,46601,11.0,72252.0,4.19,-20.99,-21.09,0,*7C
1520251491.29,46602,11.0,72256.0,4.19,-21.13,-21.39,0,*7F
1520251492.52,46603,10.94,72252.5,4.19,-21.09,-21.23,0,*7E
1520251493.76,46604,11.0,72256.8,4.17,-21.39,-21.57,0,*77
1520251495.02,46605,11.0,72256.3,4.17,-20.35,-20.43,0,*7F
1520251496.21,46606,11.0,72254.8,4.19,-21.09,-21.13,0,*78
1520251497.44,46607,11.0,72258.3,4.19,-21.13,-21.23,0,*71
1520251498.64,46608,11.0,72258.0,4.19,-21.39,-21.43,0,*70
1520251499.89,46609,11.0,72258.0,4.17,-21.27,-21.43,0,*70
1520251501.14,46610,10.94,72252.3,4.17,-20.63,-20.79,0,*71
1520251502.4,46611,11.0,72254.3,4.17,-20.49,-20.59,0,*7A
1520251503.67,46612,11.0,72256.0,4.17,-20.43,-20.49,0,*72
1520251504.92,46613,11.0,72254.0,4.17,-20.35,-20.43,0,*78
1520251506.15,46614,11.0,72258.0,4.17,-20.93,-20.93,0,*7E
1520251507.37,46615,11.0,72256.3,4.17,-20.93,-21.13,0,*76
1520251508.63,46616,11.0,72256.5,4.19,-21.53,-21.57,0,*76
1520251509.85,46617,10.94,72252.8,4.17,-21.39,-21.43,0,*70
1520251511.13,46618,11.0,72258.5,4.17,-21.53,-21.57,0,*76
1520251512.35,46619,11.0,72254.3,4.13,-22.27,-22.37,0,*76
1520251513.58,46620,11.0,72254.8,4.17,-22.87,-22.97,0,*78
1520251514.83,46621,11.0,72254.0,4.11,-23.29,-23.53,0,*73
1520251516.12,46622,11.0,72256.0,4.09,-22.47,-22.47,0,*74
1520251517.37,46623,11.0,72258.5,4.09,-21.77,-21.83,0,*7E
1520251518.66,46624,11.0,72252.0,4.05,-22.21,-22.31,0,*7F
1520251519.89,46625,11.0,72256.5,4.05,-22.97,-22.97,0,*7F
1520251521.12,46626,11.0,72254.3,4.05,-22.53,-22.67,0,*7B
1520251522.32,46627,11.0,72256.5,4.03,-22.41,-22.53,0,*78
1520251523.57,46628,10.94,72250.5,4.01,-22.31,-22.41,0,*71
1520251524.83,46629,11.0,72252.5,4.01,-22.47,-22.63,0,*71
1520251526.09,46630,11.0,72254.8,3.97,-22.67,-22.77,0,*76
1520251527.32,46631,11.0,72252.0,3.99,-22.27,-22.31,0,*7F
1520251528.55,46632,11.0,72252.5,3.97,-23.59,-23.79,0,*77
1520251529.75,46633,11.0,72256.3,3.93,-24.77,-24.97,0,*7E
1520251530.97,46634,11.0,72254.5,3.89,-25.03,-25.19,0,*77
1520251532.22,46635,11.0,72252.5,3.87,-25.03,-25.19,0,*78
1520251533.46,46636,10.94,72248.5,3.83,-25.19,-25.29,0,*77
1520251534.74,46637,11.0,72252.5,3.79,-24.83,-25.03,0,*79
1520251535.97,46638,11.0,72254.0,3.75,-23.09,-23.13,0,*78
1520251537.22,46639,11.0,72252.3,3.75,-24.21,-24.57,0,*73
1520251538.47,46640,11.0,72252.8,3.75,-24.57,-24.87,0,*71
1520251539.72,46641,11.0,72252.0,3.71,-24.83,-24.93,0,*78
1520251540.95,46642,11.0,72254.5,3.67,-22.87,-22.93,0,*78
1520251542.21,46643,11.0,72254.5,3.67,-23.09,-23.33,0,*75
1520251543.48,46644,11.0,72256.0,3.67,-23.23,-23.33,0,*7A
1520251544.74,46645,11.0,72254.0,3.65,-23.03,-23.23,0,*7A
1520251545.99,46646,11.0,72252.3,3.61,-23.79,-23.95,0,*7D
1520251547.27,46647,11.0,72250.0,3.61,-24.41,-24.71,0,*7D
1520251548.53,46648,11.0,72252.0,3.57,-24.21,-24.47,0,*74
1520251549.76,46649,11.0,72252.0,3.57,-23.39,-23.59,0,*73
1520251550.97,46650,11.0,72254.8,3.55,-24.31,-24.51,0,*79
1520251552.2,46651,11.0,72250.0,3.51,-24.87,-25.09,0,*7D
1520251553.4,46652,11.0,72250.5,3.51,-23.43,-23.59,0,*72
1520251554.66,46653,11.0,72252.0,3.49,-23.59,-23.69,0,*72
1520251555.91,46654,11.0,72250.5,3.49,-23.69,-23.79,0,*77
1520251557.16,46655,11.0,72250.5,3.49,-23.33,-23.59,0,*7B
1520251558.39,46656,11.0,72252.0,3.45,-22.67,-22.93,0,*73
1520251559.64,46657,11.0,72254.0,3.45,-22.73,-22.93,0,*77
1520251560.89,46658,11.0,72252.0,3.43,-23.33,-23.53,0,*76
1520251562.11,46659,11.0,72254.5,3.43,-22.21,-22.41,0,*77
1520251563.34,46660,11.0,72256.0,3.43,-21.93,-21.97,0,*7F
1520251564.54,46661,11.0,72256.0,3.43,-21.77,-21.93,0,*70
1520251565.74,46662,11.0,72254.5,3.43,-21.63,-21.93,0,*76
1520251566.94,46663,11.0,72252.5,3.43,-22.07,-22.27,0,*7A
1520251568.19,46664,11.0,72252.3,3.45,-22.11,-22.21,0,*7A
1520251569.44,46665,11.0,72252.8,3.45,-21.57,-21.77,0,*7A
1520251570.67,46666,11.0,72252.3,3.43,-21.43,-21.67,0,*7B
1520251571.88,46667,11.0,72254.5,3.45,-22.07,-22.41,0,*78
1520251573.08,46668,11.0,72254.0,3.43,-21.63,-21.93,0,*7C
1520251574.34,46669,11.0,72256.0,3.43,-21.03,-21.27,0,*74
1520251575.57,46670,11.0,72254.3,3.43,-21.17,-21.33,0,*7C
1520251576.83,46671,11.0,72252.8,3.45,-20.83,-20.89,0,*77
1520251578.08,46672,11.0,72258.3,3.45,-20.83,-21.13,0,*76
1520251579.34,46673,11.0,72258.0,3.45,-20.99,-21.13,0,*7C
1520251580.59,46674,11.0,72258.3,3.45,-20.89,-20.99,0,*79
1520251581.83,46675,11.0,72252.0,3.51,-20.53,-20.59,0,*76
1520251583.06,46676,11.0,72252.0,3.51,-21.03,-21.39,0,*76
1520251584.3,46677,11.0,72254.5,3.51,-21.17,-21.23,0,*79
1520251585.52,46678,11.0,72254.3,3.53,-20.09,-20.09,0,*73
1520251586.78,46679,11.0,72254.5,3.55,-19.65,-19.65,0,*74
1520251588.06,46680,11.0,72254.0,3.57,-20.19,-20.35,0,*7E
1520251589.34,46681,11.0,72254.5,3.57,-20.49,-20.49,0,*71
1520251590.58,46682,11.0,72252.5,3.57,-20.59,-20.73,0,*7A
1520251591.81,46683,11.0,72252.8,3.59,-20.79,-20.93,0,*79
1520251593.09,46684,11.0,72252.5,3.57,-21.33,-21.53,0,*72
1520251594.28,46685,11.0,72254.0,3.59,-21.47,-21.73,0,*7C
1520251595.54,46686,11.0,72254.0,3.57,-21.43,-21.67,0,*70
1520251596.82,46687,11.0,72254.0,3.57,-20.83,-20.83,0,*77
1520251598.11,46688,11.0,72258.8,3.57,-20.53,-20.53,0,*78
1520251599.36,46689,11.0,72252.8,3.57,-20.09,-20.19,0,*78
1520251600.61,46690,11.0,72256.0,3.61,-20.63,-20.79,0,*7F
1520251601.86,46691,11.0,72256.3,3.63,-21.57,-21.83,0,*7E
1520251603.08,46692,11.0,72254.3,3.59,-21.57,-21.77,0,*7F
1520251604.29,46693,11.0,72252.8,3.59,-21.73,-21.77,0,*78
1520251605.51,46694,11.0,72252.3,3.57,-21.43,-21.63,0,*77
1520251606.74,46695,11.0,72252.5,3.57,-21.47,-21.63,0,*72
1520251607.99,46696,11.0,72254.8,3.57,-20.99,-21.09,0,*7F
1520251609.22,46697,11.0,72252.0,3.59,-20.93,-20.99,0,*72
1520251610.48,46698,11.0,72252.8,3.57,-20.83,-21.13,0,*71
1520251611.7,46699,11.0,72254.3,3.59,-21.97,-22.03,0,*78
1520251612.93,46700,11.0,72252.5,3.59,-21.23,-21.39,0,*7C
1520251614.15,46701,11.0,72252.5,3.59,-21.27,-21.43,0,*74
1520251615.38,46702,11.0,72254.5,3.59,-21.13,-21.27,0,*72
1520251616.64,46703,11.0,72254.0,3.57,-21.13,-21.27,0,*7D
1520251617.87,46704,11.0,72254.8,3.57,-21.63,-21.77,0,*78
1520251619.13,46705,11.0,72252.8,3.57,-21.67,-21.77,0,*7D
1520251620.37,46706,11.0,72254.0,3.57,-21.13,-21.17,0,*7B
1520251621.59,46707,11.0,72254.3,3.57,-22.07,-22.37,0,*7D
1520251622.85,46708,11.0,72252.5,3.57,-22.77,-22.93,0,*7B
1520251624.1,46709,11.0,72254.8,3.53,-23.39,-23.53,0,*78
1520251625.37,46710,11.0,72256.5,3.49,-23.69,-23.85,0,*75
1520251626.65,46711,11.0,72256.3,3.49,-23.49,-23.69,0,*74
1520251627.86,46712,11.0,72258.0,3.43,-22.53,-22.67,0,*78
1520251629.08,46713,11.0,72254.3,3.43,-22.21,-22.53,0,*7B
1520251630.32,46714,11.0,72258.0,3.43,-22.93,-23.23,0,*73
1520251631.58,46715,11.0,72254.8,3.41,-22.77,-22.97,0,*74
1520251632.81,46716,11.0,72256.0,3.39,-22.17,-22.41,0,*75
1520251634.03,46717,11.0,72256.0,3.39,-21.33,-21.63,0,*72
1520251635.28,46718,11.0,72256.0,3.39,-21.33,-21.53,0,*7E
1520251636.53,46719,11.0,72252.0,3.39,-20.79,-21.03,0,*75
1520251637.76,46720,11.0,72254.8,3.41,-20.89,-21.09,0,*75
1520251639.01,46721,11.0,72256.3,3.41,-21.09,-21.33,0,*74
1520251640.24,46722,11.0,72252.3,3.39,-21.33,-21.47,0,*72
1520251641.52,46723,11.0,72252.3,3.41,-21.33,-21.53,0,*79
1520251642.75,46724,11.0,72254.5,3.39,-21.47,-21.67,0,*75
1520251643.98,46725,11.0,72254.3,3.39,-22.03,-22.17,0,*73
1520251645.21,46726,11.0,72258.3,3.39,-21.87,-22.03,0,*7A
1520251646.43,46727,11.0,72256.0,3.39,-21.83,-22.03,0,*7F
1520251647.68,46728,11.0,72252.0,3.37,-22.21,-22.37,0,*72
1520251648.97,46729,11.0,72254.3,3.37,-21.67,-21.87,0,*7A
1520251650.19,46730,11.0,72250.3,3.35,-22.03,-22.21,0,*7E
1520251651.43,46731,11.0,72252.3,3.35,-21.87,-22.07,0,*74
1520251652.66,46732,11.0,72252.0,3.35,-21.57,-21.77,0,*7E
1520251653.86,46733,11.0,72254.0,3.35,-21.73,-21.93,0,*73
1520251655.1,46734,11.0,72252.8,3.35,-22.77,-23.13,0,*79
1520251656.35,46735,11.0,72252.8,3.31,-22.63,-22.77,0,*7A
1520251657.63,46736,11.0,72252.0,3.31,-22.17,-22.31,0,*78
1520251658.89,46737,11.0,72252.3,3.29,-22.17,-22.31,0,*70
1520251660.09,46738,11.0,72256.8,3.29,-21.47,-21.77,0,*78
1520251661.33,46739,11.0,72258.3,3.29,-20.53,-20.43,0,*7B
1520251662.53,46740,11.0,72252.5,3.29,-19.75,-19.91,0,*7E
1520251663.79,46741,11.0,72258.8,3.33,-19.61,-19.75,0,*7B
1520251665.07,46742,11.0,72258.8,3.33,-19.57,-19.85,0,*72
1520251666.33,46743,11.0,72258.0,3.37,-19.85,-20.05,0,*7A
1520251667.59,46744,11.0,72258.0,3.37,-19.27,-19.37,0,*7E
1520251668.84,46745,11.0,72258.0,3.41,-19.07,-19.23,0,*79
1520251670.05,46746,11.0,72256.0,3.39,-19.07,-19.17,0,*72
1520251671.28,46747,11.0,72256.5,3.41,-19.07,-19.17,0,*7C
1520251672.54,46748,11.0,72254.0,3.45,-19.71,-19.81,0,*79
1520251673.76,46749,11.0,72256.3,3.45,-19.91,-20.05,0,*70
1520251674.96,46750,11.0,72256.0,3.43,-20.05,-20.09,0,*75
1520251676.22,46751,11.0,72256.8,3.49,-19.65,-19.75,0,*73
1520251677.5,46752,11.0,72258.8,3.49,-19.41,-19.65,0,*77
1520251678.75,46753,11.0,72256.5,3.49,-20.05,-20.15,0,*71
1520251679.98,46754,11.0,72258.8,3.51,-19.71,-19.85,0,*75
1520251681.21,46755,11.0,72258.3,3.51,-19.85,-19.95,0,*7E
1520251682.44,46756,11.0,72252.8,3.51,-19.71,-19.85,0,*77
1520251683.65,46757,11.0,72258.5,3.55,-19.91,-19.95,0,*7D
1520251684.89,46758,11.0,72254.5,3.53,-20.43,-20.59,0,*7B
1520251686.14,46759,11.0,72256.5,3.55,-20.35,-20.49,0,*7C
1520251687.4,46760,11.0,72254.0,3.53,-20.59,-20.79,0,*79
1520251688.66,46761,11.0,72252.0,3.53,-20.59,-20.79,0,*78
1520251689.9,46762,11.0,72254.3,3.53,-20.43,-20.59,0,*72
1520251691.16,46763,11.0,72258.3,3.53,-20.39,-20.53,0,*74
1520251692.39,46764,11.0,72256.8,3.53,-20.25,-20.25,0,*7F
1520251693.63,46765,11.0,72256.8,3.53,-19.99,-20.09,0,*7D
1520251694.89,46766,11.0,72258.3,3.53,-20.53,-20.73,0,*7F
1520251696.11,46767,11.0,72254.5,3.55,-20.25,-20.35,0,*7B
1520251697.33,46768,11.0,72252.0,3.55,-20.09,-20.15,0,*78
1520251698.56,46769,11.0,72252.8,3.55,-20.19,-20.25,0,*7B
1520251699.79,46770,11.0,72258.0,3.55,-20.19,-20.25,0,*73
1520251701.02,46771,11.0,72256.8,3.55,-20.25,-20.53,0,*7C
1520251702.31,46772,11.0,72258.3,3.53,-21.03,-21.23,0,*7A
1520251703.59,46773,11.0,72256.0,3.57,-20.19,-20.35,0,*73
1520251704.87,46774,11.0,72256.8,3.57,-20.35,-20.53,0,*7A
1520251706.12,46775,11.0,72256.0,3.55,-19.65,-19.81,0,*73
1520251707.34,46776,11.0,72258.8,3.55,-19.75,-19.81,0,*71
1520251708.55,46777,11.0,72256.5,3.55,-19.91,-19.95,0,*7F